Погода в Маспаломасе

Испания     27°45′29″N   15°35′58″W
темп.,
°C
ветер,
м/с
пор.,
м/с
влажн.,
%
обл.,
%
осадки,
мм/ч
давл.,
гПа
погр.,
м
30 июня, чт
чт3001:00+20ссв79742 0.0 1019466
04:00+19ссв68752 0.0 1017444
07:00+19ссв687810 0.0 1017500
10:00+21ссв46678 0.0 1018638
13:00+23ссв56614 0.0 1018650
16:00+23св56597 0.0 1017704
19:00+22ссв67622 0.0 1017578
22:00+20ссв89724 0.0 1018535
1 июля, пт
пт101:00+20ссв78725 0.0 1018592
04:00+19ссв79744 0.0 1017586
07:00+19ссв68735 0.0 1017543
10:00+21ссв566510 0.0 1018873
13:00+22ссв456114 0.0 1018747
16:00+23св35576 0.0 1017752
19:00+23с56605 0.0 1016642
22:00+21ссв57701 0.0 1018507
2 июля, сб
сб201:00+21ссв68742 0.0 1018562
04:00+20ссв587510 0.0 1018597
07:00+20с46760 0.0 1018433
10:00+22ссв46652 0.0 1019581
13:00+23ссв45616 0.0 1020679
16:00+24ссв45592 0.0 1019665
19:00+23ссв67612 0.0 1019542
22:00+21ссв78690 0.0 1020501
3 июля, вс
вс301:00+21ссв68721 0.0 1021464
04:00+20ссв78751 0.0 1019413
07:00+19ссв68770 0.0 1019347
10:00+22ссв68688 0.0 1020535
13:00+23св88623 0.0 1021673
16:00+24св55611 0.0 1019570
19:00+23ссв56640 0.0 1019437
22:00+21ссв89742 0.0 1020462
4 июля, пн
пн401:00+20ссв8107613 0.0 1020462
04:00+19ссв89767 0.0 1019427
07:00+19ссв787913 0.0 1019390
10:00+21ссв776813 0.0 1020557
13:00+23св67620 0.0 1019548
16:00+24ссв56620 0.0 1018517
19:00+23ссв56650 0.0 1018456
22:00+21ссв89741 0.0 1019406